Glen Ullin, ND

5:48 AM MST on February 06, 2016 (GMT -0700)
Glen Ullin Rgnl, Glen Ullin,

Weather History for KD57 - May, 2014

Change the Weather History Date:

Sunday, May 4, 2014

  Actual Average (KDIK) Record (KDIK)
Temperature  
Mean Temperature 37 °F 49 °F  
Max Temperature 42 °F 63 °F 92 °F (1926)
Min Temperature 32 °F 36 °F 9 °F (1967)
Degree Days  
Heating Degree Days 28 16  
Month to date heating degree days 66  
Since 1 July heating degree days 8128  
Cooling Degree Days 0 0  
Month to date cooling degree days 0  
Year to date cooling degree days 1  
Moisture  
Dew Point 27 °F    
Average Humidity 65    
Maximum Humidity 87    
Minimum Humidity 53    
Precipitation  
Precipitation 0.00 in 0.06 in 0.44 in (1950)
Month to date precipitation 0.27  
Year to date precipitation 3.06  
Sea Level Pressure  
Sea Level Pressure 29.98 in    
Wind  
Wind Speed 10 mph (SE)    
Max Wind Speed 20 mph    
Max Gust Speed 26 mph    
Visibility 10 miles    
Events      
T = Trace of Precipitation, MM = Missing Value Source: NWS Daily Summary

Daily Weather History Graph

Daily Weather History Graph

Search for Another Location

Airport or City:

Trip Planner

Search our weather history database for the weather conditions in past years. The results will help you decide how hot, cold, wet, or windy it might be!

Date:

Astronomy

May. 04, 2014 Rise Set
Actual Time 5:27 AM MDT 8:01 PM MDT
Civil Twilight 4:53 AM MDT 8:35 PM MDT
Nautical Twilight 4:10 AM MDT 9:19 PM MDT
Astronomical Twilight 3:21 AM MDT 10:09 PM MDT
Moon 9:52 AM MDT (5/4) 12:09 AM MDT (5/4)
Length of Visible Light 15h 42m
Length of Day
14h 33m
Waxing Crescent, 28% of the Moon is Illuminated
May 4
Waxing Crescent
May 6
First Quarter
May 14
Full
May 21
Last Quarter
May 28
New

Hourly Weather History & Observations

Time (MDT) Temp. Windchill Dew Point Humidity Pressure Visibility Wind Dir Wind Speed Gust Speed Precip Events Conditions
12:15 AM 35.6 °F 27.5 °F 23.0 °F 60% 30.06 in 10.0 mi East 11.5 mph - N/A   Overcast
12:35 AM 35.6 °F 28.6 °F 23.0 °F 60% 30.05 in 10.0 mi East 9.2 mph - N/A   Overcast
12:55 AM 35.6 °F 29.2 °F 23.0 °F 60% 30.05 in 10.0 mi ESE 8.1 mph - N/A   Mostly Cloudy
1:15 AM 35.6 °F 28.6 °F 23.0 °F 60% 30.04 in 10.0 mi East 9.2 mph - N/A   Overcast
1:35 AM 35.6 °F 29.2 °F 23.0 °F 60% 30.03 in 10.0 mi ESE 8.1 mph - N/A   Overcast
1:55 AM 35.6 °F 30.7 °F 23.0 °F 60% 30.04 in 10.0 mi ESE 5.8 mph - N/A   Overcast
2:15 AM 35.6 °F 31.7 °F 23.0 °F 60% 30.04 in 10.0 mi ESE 4.6 mph - N/A   Mostly Cloudy
2:35 AM 35.6 °F 31.7 °F 23.0 °F 60% 30.04 in 10.0 mi ESE 4.6 mph - N/A   Overcast
2:55 AM 35.6 °F 31.7 °F 23.0 °F 60% 30.04 in 10.0 mi ESE 4.6 mph - N/A   Overcast
3:15 AM 35.6 °F 32.8 °F 23.0 °F 60% 30.05 in 10.0 mi ESE 3.5 mph - N/A   Mostly Cloudy
3:35 AM 35.6 °F - 23.0 °F 60% 30.04 in 10.0 mi Calm Calm - N/A   Mostly Cloudy
3:55 AM 35.6 °F 31.7 °F 23.0 °F 60% 30.04 in 6.0 mi SE 4.6 mph - N/A   Overcast
4:15 AM 33.8 °F 26.4 °F 24.8 °F 70% 30.05 in 9.0 mi SSE 9.2 mph - N/A   Overcast
4:35 AM 32.0 °F 23.0 °F 26.6 °F 80% 30.05 in 10.0 mi South 11.5 mph - N/A   Overcast
4:55 AM 32.0 °F 26.4 °F 28.4 °F 87% 30.05 in 6.0 mi SSE 5.8 mph - N/A   Overcast
5:15 AM 32.0 °F 23.6 °F 28.4 °F 87% 30.05 in 8.0 mi South 10.4 mph - N/A   Overcast
5:35 AM 32.0 °F 23.0 °F 28.4 °F 87% 30.05 in 3.0 mi SSE 11.5 mph - N/A   Overcast
5:55 AM 32.0 °F 26.4 °F 28.4 °F 87% 30.06 in 7.0 mi SSE 5.8 mph 11.5 mph N/A   Overcast
6:15 AM 32.0 °F 24.8 °F 28.4 °F 87% 30.05 in 10.0 mi ESE 8.1 mph - N/A   Overcast
6:35 AM 32.0 °F 26.4 °F 28.4 °F 87% 30.05 in 10.0 mi ESE 5.8 mph - N/A   Overcast
6:55 AM 32.0 °F 25.6 °F 28.4 °F 87% 30.06 in 9.0 mi ESE 6.9 mph - N/A   Overcast
7:15 AM 32.0 °F 25.6 °F 28.4 °F 87% 30.05 in 10.0 mi SE 6.9 mph - N/A   Overcast
7:35 AM 33.8 °F 27.7 °F 28.4 °F 81% 30.05 in 10.0 mi Variable 6.9 mph - N/A   Overcast
7:55 AM 33.8 °F 27.0 °F 26.6 °F 75% 30.04 in 10.0 mi ESE 8.1 mph - N/A   Overcast
8:15 AM 33.8 °F 27.0 °F 26.6 °F 75% 30.04 in 10.0 mi ESE 8.1 mph - N/A   Overcast
8:35 AM 35.6 °F 27.5 °F 26.6 °F 70% 30.03 in 10.0 mi ESE 11.5 mph - N/A   Overcast
8:55 AM 35.6 °F 27.5 °F 26.6 °F 70% 30.03 in 10.0 mi SE 11.5 mph - N/A   Overcast
9:15 AM 35.6 °F 27.5 °F 26.6 °F 70% 30.03 in 10.0 mi SE 11.5 mph - N/A   Overcast
9:35 AM 37.4 °F 29.3 °F 26.6 °F 65% 30.01 in 10.0 mi SE 12.7 mph - N/A   Overcast
9:55 AM 37.4 °F 28.9 °F 26.6 °F 65% 30.02 in 10.0 mi SE 13.8 mph 19.6 mph N/A   Overcast
10:15 AM 37.4 °F 29.3 °F 26.6 °F 65% 30.01 in 10.0 mi SE 12.7 mph 18.4 mph N/A   Overcast
10:35 AM 37.4 °F 28.9 °F 28.4 °F 70% 30.00 in 10.0 mi SE 13.8 mph 19.6 mph N/A   Overcast
10:55 AM 39.2 °F 30.5 °F 28.4 °F 65% 30.00 in 10.0 mi SE 16.1 mph - N/A   Overcast
11:15 AM 39.2 °F 31.2 °F 28.4 °F 65% 29.99 in 10.0 mi SE 13.8 mph 20.7 mph N/A   Overcast
11:35 AM 39.2 °F 30.2 °F 28.4 °F 65% 29.99 in 10.0 mi SE 17.3 mph - N/A   Overcast
11:55 AM 39.2 °F 30.5 °F 28.4 °F 65% 29.98 in 10.0 mi SE 16.1 mph 21.9 mph N/A   Overcast
12:15 PM 39.2 °F 31.2 °F 26.6 °F 61% 29.97 in 10.0 mi SE 13.8 mph 20.7 mph N/A   Overcast
12:35 PM 41.0 °F 32.8 °F 26.6 °F 57% 29.97 in 10.0 mi SE 16.1 mph 23.0 mph N/A   Overcast
12:55 PM 41.0 °F 33.9 °F 26.6 °F 57% 29.96 in 10.0 mi SE 12.7 mph 21.9 mph N/A   Overcast
1:15 PM 41.0 °F 32.5 °F 26.6 °F 57% 29.95 in 10.0 mi SSE 17.3 mph - N/A   Overcast
1:35 PM 41.0 °F 32.2 °F 26.6 °F 57% 29.94 in 10.0 mi SE 18.4 mph - N/A   Overcast
1:55 PM 42.8 °F 34.3 °F 28.4 °F 57% 29.93 in 10.0 mi SE 19.6 mph 25.3 mph N/A   Overcast
2:15 PM 42.8 °F 34.3 °F 26.6 °F 53% 29.92 in 10.0 mi SE 19.6 mph 26.5 mph N/A   Overcast
2:35 PM 42.8 °F 34.3 °F 26.6 °F 53% 29.91 in 10.0 mi SE 19.6 mph 26.5 mph N/A   Overcast
2:55 PM 41.0 °F 33.1 °F 26.6 °F 57% 29.93 in 10.0 mi SE 15.0 mph 24.2 mph N/A   Overcast
3:15 PM 41.0 °F 32.5 °F 28.4 °F 61% 29.92 in 10.0 mi SE 17.3 mph - N/A   Overcast
3:35 PM 42.8 °F 35.4 °F 28.4 °F 57% 29.92 in 10.0 mi ESE 15.0 mph - N/A   Overcast
3:55 PM 42.8 °F 34.5 °F 26.6 °F 53% 29.89 in 10.0 mi SE 18.4 mph - N/A   Overcast
4:15 PM 42.8 °F 34.5 °F 28.4 °F 57% 29.86 in 10.0 mi ESE 18.4 mph - N/A   Mostly Cloudy
4:35 PM 42.8 °F 34.3 °F 28.4 °F 57% 29.88 in 10.0 mi SE 19.6 mph 25.3 mph N/A   Scattered Clouds
4:55 PM 42.8 °F 36.2 °F 28.4 °F 57% 29.93 in 10.0 mi SE 12.7 mph - N/A   Overcast
5:15 PM 42.8 °F 37.0 °F 28.4 °F 57% 29.93 in 10.0 mi SE 10.4 mph - N/A   Overcast
5:35 PM 42.8 °F 37.0 °F 28.4 °F 57% 29.93 in 10.0 mi SSE 10.4 mph - N/A   Overcast
5:55 PM 42.8 °F 36.6 °F 28.4 °F 57% 29.91 in 10.0 mi SE 11.5 mph - N/A   Overcast
6:15 PM 42.8 °F 37.0 °F 28.4 °F 57% 29.91 in 10.0 mi SE 10.4 mph - N/A   Overcast
6:35 PM 42.8 °F 37.0 °F 28.4 °F 57% 29.91 in 10.0 mi SE 10.4 mph 16.1 mph N/A   Overcast
6:55 PM 42.8 °F 37.5 °F 28.4 °F 57% 29.91 in 10.0 mi SE 9.2 mph 15.0 mph N/A   Overcast
7:15 PM 42.8 °F 37.5 °F 28.4 °F 57% 29.91 in 10.0 mi ESE 9.2 mph - N/A   Overcast
7:35 PM 42.8 °F 37.0 °F 28.4 °F 57% 29.91 in 10.0 mi ESE 10.4 mph - N/A   Overcast
7:55 PM 42.8 °F 37.0 °F 28.4 °F 57% 29.92 in 10.0 mi ESE 10.4 mph - N/A   Overcast
8:15 PM 41.0 °F 34.3 °F 28.4 °F 61% 29.93 in 10.0 mi East 11.5 mph - N/A   Overcast
8:35 PM 41.0 °F 34.3 °F 28.4 °F 61% 29.92 in 10.0 mi ESE 11.5 mph - N/A   Overcast
8:55 PM 41.0 °F 34.7 °F 28.4 °F 61% 29.94 in 10.0 mi ESE 10.4 mph - N/A   Overcast
9:15 PM 41.0 °F 34.7 °F 28.4 °F 61% 29.94 in 10.0 mi East 10.4 mph - N/A   Overcast
9:35 PM 41.0 °F 34.3 °F 28.4 °F 61% 29.95 in 10.0 mi East 11.5 mph - N/A   Overcast
9:55 PM 39.2 °F 32.5 °F 28.4 °F 65% 29.95 in 10.0 mi East 10.4 mph - N/A   Overcast
10:15 PM 39.2 °F 32.5 °F 28.4 °F 65% 29.94 in 10.0 mi ESE 10.4 mph - N/A   Overcast
10:35 PM 39.2 °F 33.0 °F 26.6 °F 61% 29.94 in 10.0 mi ESE 9.2 mph - N/A   Overcast
10:55 PM 39.2 °F 33.0 °F 28.4 °F 65% 29.95 in 10.0 mi ESE 9.2 mph - N/A   Overcast
11:15 PM 39.2 °F 32.5 °F 26.6 °F 61% 29.94 in 10.0 mi ESE 10.4 mph - N/A   Overcast
11:35 PM 37.4 °F 30.8 °F 26.6 °F 65% 29.93 in 10.0 mi East 9.2 mph - N/A   Overcast
11:55 PM 35.6 °F 28.6 °F 26.6 °F 70% 29.93 in 10.0 mi East 9.2 mph - N/A   Mostly Cloudy